Regional Weather Roundup
Issued by NWS

Home | Current Version | Previous Version | Graphics & Text | Print | Product List | Glossary On
Versions: 1 2 3 4 5 6 7 8 9 10 11 12 13 14 15 16 17 18 19 20 21 22 23 24 25 26 27 28 29 30 31 32 33 34 35 36 37 38 39 40 41 42 43 44 45 46 47 48 49 50
573
ASUS43 KBIS 270702
RWRND

NORTH DAKOTA REGIONAL WEATHER ROUNDUP
NATIONAL WEATHER SERVICE BISMARCK ND
200 AM CDT TUE SEP 27 2016

NOTE: "FAIR" INDICATES FEW OR NO CLOUDS BELOW 12,000 FEET WITH NO
SIGNIFICANT WEATHER AND/OR OBSTRUCTIONS TO VISIBILITY.


NDZ001>003-009>011-017-270800-
NORTHWEST NORTH DAKOTA

CITY           SKY/WX    TMP DP  RH WIND       PRES   REMARKS
WILLISTON      CLEAR     42  38  85 N3        30.06S
MINOT          CLEAR     44  38  79 SW8       30.03F
MINOT AFB      CLEAR     41  37  84 W8        30.02F
$$

NDZ018>021-031>035-040>046-270800-
SOUTHWEST NORTH DAKOTA

CITY           SKY/WX    TMP DP  RH WIND       PRES   REMARKS
BISMARCK       CLEAR     38  36  92 CALM      30.06S
DICKINSON      CLEAR     45  38  76 W6        30.07S
GARRISON         N/A     43  38  82 CALM      30.05S
HETTINGER ARPT CLEAR     43  39  86 NW3       30.11F
$$

NDZ004>008-012>016-024-026-027-054-270800-
NORTHEAST NORTH DAKOTA

CITY           SKY/WX    TMP DP  RH WIND       PRES   REMARKS
GRAND FORKS    CLEAR     41  37  86 W9        29.93F
GRND FRKS AFB  CLEAR     42  36  78 NW7       29.94S
DEVILS LAKE    CLEAR     43  36  76 NW8       29.98F
$$

NDZ022-023-025-028>030-036>039-047>053-270800-
SOUTHEAST NORTH DAKOTA

CITY           SKY/WX    TMP DP  RH WIND       PRES   REMARKS
FARGO          CLEAR     41  34  76 NW7       29.94S
JAMESTOWN      CLEAR     45  38  76 NW9       29.99S
$$





USA.gov is the U.S. government's official web portal to all federal, state and local government web resources and services.